Weather History for George, South Africa

Change the Weather History Date:

Wednesday, September 26, 2012

  Actual Average Record
Temperature  
Mean Temperature 58 °F -  
Max Temperature 61 °F 67 °F 82 °F (1997)
Min Temperature 54 °F 50 °F 41 °F (1998)
Degree Days  
Heating Degree Days 8    
Growing Degree Days 8 (Base 50)    
Moisture  
Dew Point 53 °F    
Average Humidity 81    
Maximum Humidity 94    
Minimum Humidity 64    
Precipitation  
Precipitation 0.00 in - - ()
Sea Level Pressure  
Sea Level Pressure 29.83 in    
Wind  
Wind Speed 4 mph ()    
Max Wind Speed 12 mph    
Max Gust Speed -    
Visibility 7.4 miles    
Events      
Averages and records for this station are not official NWS values.
T = Trace of Precipitation, MM = Missing Value Source: Averaged Metar Reports

Daily Weather History Graph

Daily Weather History Graph

Search for Another Location

Airport:

Trip Planner

Search our weather history database for the weather conditions in past years. The results will help you decide how hot, cold, wet, or windy it might be!

Date:

Astronomy

Sep. 26, 2012 Rise Set
Actual Time 6:14 AM SAST 6:29 PM SAST
Civil Twilight 5:49 AM SAST 6:54 PM SAST
Nautical Twilight 5:19 AM SAST 7:24 PM SAST
Astronomical Twilight 4:50 AM SAST 7:53 PM SAST
Moon 3:08 PM SAST (9/26) 3:43 AM SAST (9/26)
Length of Visible Light 13h 05m
Length of Day
12h 15m
Waxing Gibbous, 86% of the Moon is Illuminated
Sep 26
Waxing Gibbous
Sep 30
Full
Oct 8
Last Quarter
Oct 15
New
Oct 22
First Quarter

Hourly Weather History & Observations

Time (SAST) Temp. Dew Point Humidity Pressure Visibility Wind Dir Wind Speed Gust Speed Precip Events Conditions
2:00 AM 56 °F 54 °F 90% 29.87 in 6 mi NNW 4.6 mph - -  
2:00 AM 55.4 °F 53.6 °F 94% 29.86 in 6.2 mi NNW 3.5 mph - N/A   Overcast
3:00 AM 55.4 °F 53.6 °F 94% 29.83 in 6.2 mi NW 4.6 mph - N/A   Overcast
4:00 AM 55.4 °F 53.6 °F 94% 29.80 in 6.2 mi Variable 1.2 mph - N/A   Mostly Cloudy
5:00 AM 56 °F 53 °F 87% 29.83 in 12 mi SW 3.5 mph - -   Mostly Cloudy
5:00 AM 55.4 °F 53.6 °F 94% 29.83 in 6.2 mi SW 4.6 mph - N/A   Mostly Cloudy
6:00 AM 57.2 °F 53.6 °F 88% 29.83 in 6.2 mi Calm Calm - N/A   Mostly Cloudy
7:00 AM 57.2 °F 53.6 °F 88% 29.83 in 6.2 mi Variable 1.2 mph - N/A   Mostly Cloudy
8:00 AM 59 °F 54 °F 79% 29.84 in 12 mi 1.2 mph - -   Mostly Cloudy
8:00 AM 59.0 °F 55.4 °F 88% 29.83 in 6.2 mi Variable 1.2 mph - N/A   Mostly Cloudy
9:00 AM 60.8 °F 55.4 °F 82% 29.83 in 6.2 mi WSW 3.5 mph - N/A   Mostly Cloudy
10:00 AM 60.8 °F 55.4 °F 82% 29.83 in 6.2 mi SSW 8.1 mph - N/A   Mostly Cloudy
11:00 AM 60 °F 54 °F 74% 29.84 in 12 mi South 11.5 mph - -   Mostly Cloudy
11:00 AM 60.8 °F 53.6 °F 77% 29.83 in 6.2 mi South 11.5 mph - N/A   Mostly Cloudy
12:00 PM 60.8 °F 53.6 °F 77% 29.83 in 6.2 mi South 11.5 mph - N/A   Mostly Cloudy
1:00 PM 59.0 °F 51.8 °F 77% 29.83 in 6.2 mi South 6.9 mph - N/A   Mostly Cloudy
2:00 PM 60 °F 53 °F 70% 29.83 in 12 mi South 8.1 mph - -   Overcast
2:00 PM 60.8 °F 53.6 °F 77% 29.83 in 6.2 mi South 8.1 mph - N/A   Overcast
3:00 PM 59.0 °F 51.8 °F 77% 29.83 in 6.2 mi SSW 8.1 mph - N/A   Mostly Cloudy
4:00 PM 60.8 °F 51.8 °F 72% 29.80 in 6.2 mi SSW 3.5 mph - N/A   Mostly Cloudy
5:00 PM 61 °F 52 °F 64% 29.83 in 12 mi SSW 6.9 mph - -   Mostly Cloudy
5:00 PM 60.8 °F 51.8 °F 72% 29.80 in 6.2 mi SSW 6.9 mph - N/A   Mostly Cloudy
6:00 PM 59.0 °F 51.8 °F 77% 29.80 in 6.2 mi South 4.6 mph - N/A   Mostly Cloudy
7:00 PM 59.0 °F 51.8 °F 77% 29.83 in 6.2 mi South 3.5 mph - N/A   Mostly Cloudy
8:00 PM 58 °F 52 °F 73% 29.87 in 12 mi SW 3.5 mph - -   Mostly Cloudy
8:00 PM 57.2 °F 51.8 °F 82% 29.86 in 6.2 mi SW 3.5 mph - N/A   Mostly Cloudy
9:00 PM 57.2 °F 51.8 °F 82% 29.86 in 6.2 mi NNW 3.5 mph - N/A   Mostly Cloudy
10:00 PM 57.2 °F 51.8 °F 82% 29.86 in 6.2 mi NNE 3.5 mph - N/A   Mostly Cloudy
11:00 PM 55.4 °F 51.8 °F 88% 29.86 in 6.2 mi North 2.3 mph - N/A   Partly Cloudy